When you browse on this site, cookies collect data to enhance your experience and personalize the content and advertising you see.
Visit our Privacy Policy to learn more. By continuing to use the site, you agree to this use of cookies and data.
  • In Latvia
  • List of Countries
  • For 7 days
  • Water Temperature
  • Weather Map
  • Weather Widgets
  • user-avatar
    Login

    Hourly Weather Andrianov

    Today, 22 August, Thursday

    Time Temperature Precipitation Wind Pressure Humidity
    00:00 +29°C° 0 mm 6 mps 753 mmHg 34%
    01:00 +28°C° 0 mm 5 mps 753 mmHg 36%
    02:00 +27°C° 0 mm 5 mps 753 mmHg 39%
    03:00 +26°C° 0 mm 3 mps 753 mmHg 40%
    04:00 +26°C° 0 mm 3 mps 753 mmHg 42%
    05:00 +26°C° 0 mm 4 mps 753 mmHg 45%
    06:00 +25°C° 0 mm 4 mps 753 mmHg 48%
    07:00 +28°C° 0 mm 4 mps 754 mmHg 43%
    08:00 +30°C° 0 mm 4 mps 754 mmHg 39%
    09:00 +33°C° 0 mm 5 mps 754 mmHg 35%
    10:00 +35°C° 0 mm 5 mps 754 mmHg 30%
    11:00 +37°C° 0 mm 5 mps 754 mmHg 25%
    12:00 +40°C° 0 mm 5 mps 753 mmHg 20%
    13:00 +40°C° 0 mm 5 mps 753 mmHg 19%
    14:00 +40°C° 0 mm 5 mps 753 mmHg 18%
    15:00 +41°C° 0 mm 6 mps 753 mmHg 17%
    16:00 +40°C° 0 mm 5 mps 753 mmHg 19%
    17:00 +38°C° 0 mm 4 mps 753 mmHg 20%
    18:00 +37°C° 0 mm 4 mps 752 mmHg 22%
    19:00 +35°C° 0 mm 4 mps 753 mmHg 26%
    20:00 +34°C° 0 mm 5 mps 753 mmHg 30%
    21:00 +32°C° 0 mm 5 mps 753 mmHg 34%
    22:00 +30°C° 0 mm 5 mps 753 mmHg 35%
    23:00 +30°C° 0 mm 5 mps 753 mmHg 35%

    Tomorrow, 23 August, Friday

    Time Temperature Precipitation Wind Pressure Humidity
    00:00 +29°C° 0 mm 5 mps 753 mmHg 36%
    01:00 +29°C° 0 mm 5 mps 753 mmHg 37%
    02:00 +29°C° 0 mm 5 mps 753 mmHg 38%
    03:00 +28°C° 0 mm 5 mps 753 mmHg 40%
    04:00 +27°C° 0 mm 4 mps 753 mmHg 41%
    05:00 +27°C° 0 mm 4 mps 753 mmHg 43%
    06:00 +26°C° 0 mm 4 mps 753 mmHg 45%
    07:00 +28°C° 0 mm 4 mps 753 mmHg 41%
    08:00 +30°C° 0 mm 4 mps 754 mmHg 38%
    09:00 +32°C° 0 mm 4 mps 754 mmHg 35%
    10:00 +34°C° 0 mm 4 mps 754 mmHg 29%
    11:00 +36°C° 0 mm 4 mps 754 mmHg 24%
    12:00 +38°C° 0 mm 4 mps 754 mmHg 19%
    13:00 +38°C° 0 mm 4 mps 753 mmHg 18%
    14:00 +40°C° 0 mm 4 mps 753 mmHg 17%
    15:00 +40°C° 0 mm 4 mps 753 mmHg 16%
    16:00 +38°C° 0 mm 4 mps 753 mmHg 18%
    17:00 +37°C° 0 mm 3 mps 753 mmHg 19%
    18:00 +37°C° 0 mm 3 mps 753 mmHg 21%
    19:00 +35°C° 0 mm 4 mps 753 mmHg 25%
    20:00 +34°C° 0 mm 6 mps 753 mmHg 28%
    21:00 +33°C° 0 mm 8 mps 754 mmHg 32%
    22:00 +32°C° 0 mm 7 mps 753 mmHg 33%
    23:00 +32°C° 0 mm 7 mps 753 mmHg 34%

    Day after tomorrow, 24 August, Saturday

    Time Temperature Precipitation Wind Pressure Humidity
    00:00 +30°C° 0 mm 7 mps 753 mmHg 35%
    01:00 +30°C° 0 mm 6 mps 753 mmHg 36%
    02:00 +29°C° 0 mm 6 mps 753 mmHg 37%
    03:00 +29°C° 0 mm 6 mps 753 mmHg 38%
    04:00 +28°C° 0 mm 6 mps 753 mmHg 39%
    05:00 +28°C° 0 mm 6 mps 753 mmHg 40%
    06:00 +27°C° 0 mm 6 mps 753 mmHg 41%
    07:00 +29°C° 0 mm 6 mps 754 mmHg 38%
    08:00 +32°C° 0 mm 6 mps 754 mmHg 34%
    09:00 +33°C° 0 mm 6 mps 754 mmHg 30%
    10:00 +35°C° 0 mm 6 mps 754 mmHg 27%
    11:00 +36°C° 0 mm 6 mps 754 mmHg 24%
    12:00 +39°C° 0 mm 6 mps 754 mmHg 21%
    13:00 +39°C° 0 mm 6 mps 754 mmHg 21%
    14:00 +39°C° 0 mm 6 mps 754 mmHg 20%
    15:00 +40°C° 0 mm 6 mps 754 mmHg 20%
    16:00 +39°C° 0 mm 5 mps 754 mmHg 22%
    17:00 +36°C° 0 mm 4 mps 753 mmHg 25%
    18:00 +35°C° 0 mm 3 mps 753 mmHg 27%
    19:00 +34°C° 0.3 mm 4 mps 754 mmHg 32%
    20:00 +32°C° 0.3 mm 5 mps 754 mmHg 36%
    21:00 +30°C° 0.3 mm 6 mps 754 mmHg 40%
    22:00 +29°C° 0 mm 6 mps 754 mmHg 40%
    23:00 +29°C° 0 mm 5 mps 754 mmHg 41%

    25 August, Sunday

    Time Temperature Precipitation Wind Pressure Humidity
    00:00 +29°C° 0 mm 5 mps 754 mmHg 41%
    01:00 +29°C° 0 mm 5 mps 754 mmHg 40%
    02:00 +28°C° 0 mm 5 mps 754 mmHg 40%
    03:00 +28°C° 0 mm 5 mps 753 mmHg 39%
    04:00 +28°C° 0 mm 5 mps 754 mmHg 41%
    05:00 +27°C° 0 mm 5 mps 754 mmHg 42%
    06:00 +27°C° 0 mm 5 mps 754 mmHg 44%
    07:00 +28°C° 0.1 mm 6 mps 754 mmHg 44%
    08:00 +28°C° 0.1 mm 6 mps 754 mmHg 45%
    09:00 +28°C° 0.1 mm 7 mps 754 mmHg 45%
    10:00 +29°C° 1.1 mm 7 mps 754 mmHg 45%
    11:00 +29°C° 1.1 mm 6 mps 754 mmHg 45%
    12:00 +29°C° 1.1 mm 6 mps 754 mmHg 45%
    13:00 +29°C° 0.1 mm 6 mps 754 mmHg 44%
    14:00 +29°C° 0.1 mm 7 mps 754 mmHg 44%
    15:00 +29°C° 0.1 mm 7 mps 754 mmHg 43%
    16:00 +29°C° 0.3 mm 6 mps 754 mmHg 45%
    17:00 +29°C° 0.3 mm 5 mps 754 mmHg 47%
    18:00 +28°C° 0.3 mm 4 mps 754 mmHg 49%
    19:00 +27°C° 0.4 mm 4 mps 754 mmHg 50%
    20:00 +27°C° 0.4 mm 4 mps 754 mmHg 52%
    21:00 +26°C° 0.4 mm 4 mps 755 mmHg 54%
    22:00 +26°C° 0 mm 4 mps 755 mmHg 54%
    23:00 +26°C° 0 mm 4 mps 755 mmHg 53%

    26 August, Monday

    Time Temperature Precipitation Wind Pressure Humidity
    00:00 +25°C° 0 mm 4 mps 755 mmHg 52%
    01:00 +25°C° 0 mm 5 mps 755 mmHg 53%
    02:00 +24°C° 0 mm 6 mps 755 mmHg 54%
    03:00 +24°C° 0 mm 7 mps 755 mmHg 54%
    04:00 +24°C° 0 mm 7 mps 755 mmHg 53%
    05:00 +24°C° 0 mm 6 mps 755 mmHg 52%
    06:00 +24°C° 0 mm 6 mps 755 mmHg 50%
    07:00 +26°C° 0 mm 6 mps 756 mmHg 46%
    08:00 +27°C° 0 mm 7 mps 756 mmHg 41%
    09:00 +29°C° 0 mm 7 mps 757 mmHg 37%
    10:00 +30°C° 0 mm 7 mps 757 mmHg 34%
    11:00 +32°C° 0 mm 7 mps 757 mmHg 31%
    12:00 +33°C° 0 mm 8 mps 757 mmHg 29%
    13:00 +33°C° 0 mm 7 mps 757 mmHg 29%
    14:00 +33°C° 0 mm 7 mps 757 mmHg 29%
    15:00 +33°C° 0 mm 7 mps 757 mmHg 29%
    16:00 +32°C° 0 mm 6 mps 757 mmHg 31%
    17:00 +30°C° 0 mm 6 mps 757 mmHg 32%
    18:00 +30°C° 0 mm 5 mps 758 mmHg 33%
    19:00 +28°C° 0 mm 5 mps 758 mmHg 35%
    20:00 +27°C° 0 mm 5 mps 758 mmHg 37%
    21:00 +26°C° 0 mm 5 mps 759 mmHg 39%
    22:00 +25°C° 0 mm 5 mps 759 mmHg 41%
    23:00 +24°C° 0 mm 6 mps 759 mmHg 43%

    27 August, Tuesday

    Time Temperature Precipitation Wind Pressure Humidity
    00:00 +23°C° 0 mm 6 mps 759 mmHg 46%
    01:00 +23°C° 0 mm 6 mps 759 mmHg 45%
    02:00 +23°C° 0 mm 6 mps 759 mmHg 45%
    03:00 +22°C° 0 mm 6 mps 759 mmHg 44%
    04:00 +22°C° 0 mm 6 mps 760 mmHg 44%
    05:00 +21°C° 0 mm 6 mps 760 mmHg 44%
    06:00 +21°C° 0 mm 6 mps 760 mmHg 44%
    07:00 +22°C° 0 mm 6 mps 760 mmHg 42%
    08:00 +24°C° 0 mm 7 mps 760 mmHg 39%
    09:00 +26°C° 0 mm 7 mps 760 mmHg 37%
    10:00 +27°C° 0 mm 7 mps 760 mmHg 34%
    11:00 +28°C° 0 mm 7 mps 760 mmHg 32%
    12:00 +29°C° 0 mm 7 mps 760 mmHg 29%
    13:00 +30°C° 0 mm 7 mps 760 mmHg 28%
    14:00 +30°C° 0 mm 7 mps 759 mmHg 26%
    15:00 +30°C° 0 mm 6 mps 759 mmHg 25%
    16:00 +29°C° 0 mm 6 mps 759 mmHg 25%
    17:00 +29°C° 0 mm 5 mps 759 mmHg 25%
    18:00 +28°C° 0 mm 4 mps 759 mmHg 25%
    19:00 +27°C° 0 mm 4 mps 759 mmHg 25%
    20:00 +25°C° 0 mm 5 mps 759 mmHg 25%
    21:00 +23°C° 0 mm 5 mps 759 mmHg 25%
    22:00 +22°C° 0 mm 5 mps 759 mmHg 26%
    23:00 +22°C° 0 mm 5 mps 759 mmHg 26%
    Show more